H1 CPF 2 NER 2021 5 9 9 129 01 glonass143 H2 2007501 9143 46805 2021 5 9 0 0 0 2021 5 12 23 45 0 900 1 1 0 0 0 1 H9 10 0 59343 0.00000 0 7381637.505 -8319763.675 -22946738.317 10 0 59343 900.00000 0 9905649.047 -7106077.510 -22398635.052 10 0 59343 1800.00000 0 12424343.250 -6116098.444 -21415205.535 10 0 59343 2700.00000 0 14869516.526 -5359665.780 -20015611.171 10 0 59343 3600.00000 0 17173617.468 -4834153.138 -18227096.555 10 0 59343 4500.00000 0 19272389.004 -4524769.196 -16084456.989 10 0 59343 5400.00000 0 21107386.181 -4405381.805 -13629359.565 10 0 59343 6300.00000 0 22628264.934 -4439829.734 -10909530.939 10 0 59343 7200.00000 0 23794746.694 -4583665.643 -7977827.671 10 0 59343 8100.00000 0 24578177.270 -4786255.788 -4891207.246 10 0 59343 9000.00000 0 24962615.408 -4993146.881 -1709619.889 10 0 59343 9900.00000 0 24945406.053 -5148599.439 1505156.981 10 0 59343 10800.00000 0 24537215.069 -5198179.852 4690718.798 10 0 59343 11700.00000 0 23761524.688 -5091301.150 7785244.867 10 0 59343 12600.00000 0 22653611.559 -4783604.622 10728696.585 10 0 59343 13500.00000 0 21259050.897 -4239081.350 13463979.599 10 0 59343 14400.00000 0 19631809.901 -3431843.697 15938047.484 10 0 59343 15300.00000 0 17832010.634 -2347471.685 18102925.787 10 0 59343 16200.00000 0 15923456.033 -983876.990 19916637.084 10 0 59343 17100.00000 0 13971022.317 648352.496 21344009.765 10 0 59343 18000.00000 0 12038026.339 2526142.928 22357355.495 10 0 59343 18900.00000 0 10183677.142 4614652.811 22937002.905 10 0 59343 19800.00000 0 8460717.215 6868490.742 23071677.726 10 0 59343 20700.00000 0 6913351.054 9233383.192 22758722.295 10 0 59343 21600.00000 0 5575546.447 11648224.446 22004150.286 10 0 59343 22500.00000 0 4469778.587 14047424.835 20822535.367 10 0 59343 23400.00000 0 3606268.744 16363460.841 19236735.452 10 0 59343 24300.00000 0 2982748.711 18529522.077 17277457.169 10 0 59343 25200.00000 0 2584760.435 20482145.757 14982668.101 10 0 59343 26100.00000 0 2386477.941 22163729.292 12396867.316 10 0 59343 27000.00000 0 2352016.716 23524816.388 9570227.511 10 0 59343 27900.00000 0 2437175.143 24526060.991 6557624.722 10 0 59343 28800.00000 0 2591534.260 25139786.558 3417574.098 10 0 59343 29700.00000 0 2760826.682 25351074.881 211092.322 10 0 59343 30600.00000 0 2889473.910 25158338.276 -2999491.103 10 0 59343 31500.00000 0 2923183.911 24573350.690 -6151749.989 10 0 59343 32400.00000 0 2811498.000 23620736.094 -9184380.803 10 0 59343 33300.00000 0 2510178.108 22336935.529 -12038400.761 10 0 59343 34200.00000 0 1983332.239 20768696.283 -14658300.549 10 0 59343 35100.00000 0 1205186.945 18971146.843 -16993128.650 10 0 59343 36000.00000 0 161430.714 17005538.780 -18997485.743 10 0 59343 36900.00000 0 -1149929.622 14936750.642 -20632409.482 10 0 59343 37800.00000 0 -2718236.660 12830658.801 -21866132.482 10 0 59343 38700.00000 0 -4520389.475 10751485.462 -22674698.911 10 0 59343 39600.00000 0 -6521582.174 8759234.844 -23042427.970 10 0 59343 40500.00000 0 -8676543.882 6907324.429 -22962215.675 10 0 59343 41400.00000 0 -10931229.115 5240509.716 -22435669.436 10 0 59343 42300.00000 0 -13224888.437 3793188.469 -21473073.169 10 0 59343 43200.00000 0 -15492433.577 2588154.258 -20093183.887 10 0 59343 44100.00000 0 -17666998.728 1635850.175 -18322863.841 10 0 59343 45000.00000 0 -19682591.463 934152.645 -16196555.455 10 0 59343 45900.00000 0 -21476722.956 468692.891 -13755609.245 10 0 59343 46800.00000 0 -22992907.936 213701.088 -11047477.734 10 0 59343 47700.00000 0 -24182930.093 133336.334 -8124791.092 10 0 59343 48600.00000 0 -25008778.509 183445.083 -5044332.537 10 0 59343 49500.00000 0 -25444174.356 313672.719 -1865933.479 10 0 59343 50400.00000 0 -25475624.274 469838.144 1348689.767 10 0 59343 51300.00000 0 -25102956.721 596470.227 4537134.918 10 0 59343 52200.00000 0 -24339319.298 639398.215 7637524.764 10 0 59343 53100.00000 0 -23210637.613 548286.142 10589706.550 10 0 59343 54000.00000 0 -21754558.846 279003.725 13336416.390 10 0 59343 54900.00000 0 -20018924.566 -204266.704 15824386.264 10 0 59343 55800.00000 0 -18059836.942 -927276.407 18005372.342 10 0 59343 56700.00000 0 -15939399.207 -1904383.909 19837085.236 10 0 59343 57600.00000 0 -13723224.490 -3137712.445 21284004.772 10 0 59343 58500.00000 0 -11477816.535 -4616827.308 22318064.115 10 0 59343 59400.00000 0 -9267930.834 -6318947.547 22919190.718 10 0 59343 60300.00000 0 -7154025.193 -8209684.415 23075694.132 10 0 59343 61200.00000 0 -5189905.021 -10244276.959 22784493.501 10 0 59343 62100.00000 0 -3420660.345 -12369274.697 22051180.436 10 0 59343 63000.00000 0 -1880979.464 -14524598.690 20889915.818 10 0 59343 63900.00000 0 -593908.737 -16645896.406 19323162.051 10 0 59343 64800.00000 0 429890.615 -18667093.442 17381255.225 10 0 59343 65700.00000 0 1192358.246 -20523036.596 15101824.605 10 0 59343 66600.00000 0 1707714.476 -22152118.526 12529069.819 10 0 59343 67500.00000 0 2001618.017 -23498774.579 9712908.922 10 0 59343 68400.00000 0 2109837.514 -24515747.277 6708013.173 10 0 59343 69300.00000 0 2076493.225 -25166023.168 3572746.915 10 0 59343 70200.00000 0 1951943.589 -25424360.291 368033.011 10 0 59343 71100.00000 0 1790406.606 -25278341.386 -2843833.952 10 0 59343 72000.00000 0 1647417.363 -24728907.927 -6000403.107 10 0 59343 72900.00000 0 1577230.268 -23790351.872 -9040287.122 10 0 59343 73800.00000 0 1630276.974 -22489764.989 -11904361.971 10 0 59343 74700.00000 0 1850788.712 -20865968.603 -14536922.449 10 0 59343 75600.00000 0 2274684.779 -18967968.589 -16886770.394 10 0 59343 76500.00000 0 2927817.589 -16853000.455 -18908213.938 10 0 59343 77400.00000 0 3824649.461 -14584246.637 -20561958.057 10 0 59343 78300.00000 0 4967418.016 -12228321.736 -21815869.067 10 0 59343 79200.00000 0 6345826.246 -9852630.936 -22645598.389 10 0 59343 80100.00000 0 7937271.192 -7522711.997 -23035053.698 10 0 59343 81000.00000 0 9707602.379 -5299671.551 -22976708.716 10 0 59343 81900.00000 0 11612378.968 -3237822.141 -22471746.017 10 0 59343 82800.00000 0 13598573.533 -1382617.937 -21530030.386 10 0 59343 83700.00000 0 15606651.715 231025.739 -20169913.535 10 0 59343 84600.00000 0 17572941.199 1579960.179 -18417874.084 10 0 59343 85500.00000 0 19432191.246 2653528.332 -16307999.915 10 0 59344 0.00000 0 21120216.013 3453758.375 -13881322.974 10 0 59344 900.00000 0 22576511.117 3995019.199 -11185019.108 10 0 59344 1800.00000 0 23746734.527 4303154.123 -8271489.375 10 0 59344 2700.00000 0 24584946.920 4414130.220 -5197339.618 10 0 59344 3600.00000 0 25055519.106 4372262.260 -2022279.112 10 0 59344 4500.00000 0 25134625.577 4228086.835 1192040.393 10 0 59344 5400.00000 0 24811262.265 4035977.714 4383222.353 10 0 59344 6300.00000 0 24087745.870 3851603.954 7489336.394 10 0 59344 7200.00000 0 22979674.063 3729338.764 10450118.736 10 0 59344 8100.00000 0 21515348.448 3719729.089 13208138.793 10 0 59344 9000.00000 0 19734684.550 3867133.087 15709909.429 10 0 59344 9900.00000 0 17687654.504 4207625.409 17906919.537 10 0 59344 10800.00000 0 15432327.375 4767258.832 19756569.475 10 0 59344 11700.00000 0 13032588.540 5560755.735 21222991.817 10 0 59344 12600.00000 0 10555632.760 6590684.866 22277742.154 10 0 59344 13500.00000 0 8069334.538 7847158.595 22900347.275 10 0 59344 14400.00000 0 5639604.305 9308064.283 23078700.652 10 0 59344 15300.00000 0 3327839.377 10939821.088 22809297.889 10 0 59344 16200.00000 0 1188574.583 12698631.875 22097307.732 10 0 59344 17100.00000 0 -732570.845 14532179.282 20956477.008 10 0 59344 18000.00000 0 -2400565.607 16381696.383 19408870.898 10 0 59344 18900.00000 0 -3792189.168 18184326.713 17484452.840 10 0 59344 19800.00000 0 -4896754.882 19875676.055 15220511.324 10 0 59344 20700.00000 0 -5716303.753 21392449.939 12660943.808 10 0 59344 21600.00000 0 -6265261.357 22675066.846 9855410.786 10 0 59344 22500.00000 0 -6569572.813 23670137.621 6858375.689 10 0 59344 23400.00000 0 -6665352.671 24332706.701 3728048.939 10 0 59344 24300.00000 0 -6597107.173 24628160.458 525256.470 10 0 59344 25200.00000 0 -6415604.570 24533721.634 -2687745.118 10 0 59344 26100.00000 0 -6175484.209 24039466.092 -5848483.219 10 0 59344 27000.00000 0 -5932706.413 23148818.262 -8895489.459 10 0 59344 27900.00000 0 -5741952.044 21878503.596 -11769501.060 10 0 59344 28800.00000 0 -5654082.787 20257959.392 -14414619.129 10 0 59344 29700.00000 0 -5713770.707 18328228.283 -16779400.701 10 0 59344 30600.00000 0 -5957398.295 16140380.470 -18817862.870 10 0 59344 31500.00000 0 -6411318.697 13753530.727 -20490379.080 10 0 59344 32400.00000 0 -7090550.401 11232533.079 -21764450.161 10 0 59344 33300.00000 0 -7997962.223 8645449.442 -22615335.270 10 0 59344 34200.00000 0 -9123983.535 6060897.846 -23026530.701 10 0 59344 35100.00000 0 -10446852.559 3545390.573 -22990087.686 10 0 59344 36000.00000 0 -11933392.833 1160772.701 -22506763.384 10 0 59344 36900.00000 0 -13540285.702 -1038132.783 -21586002.480 10 0 59344 37800.00000 0 -15215785.871 -3005576.123 -20245750.013 10 0 59344 38700.00000 0 -16901808.492 -4706543.765 -18512099.221 10 0 59344 39600.00000 0 -18536300.494 -6117965.053 -16418781.345 10 0 59344 40500.00000 0 -20055797.009 -7229413.719 -14006507.289 10 0 59344 41400.00000 0 -21398055.824 -8043276.428 -11322173.900 10 0 59344 42300.00000 0 -22504659.373 -8574382.882 -8417950.350 10 0 59344 43200.00000 0 -23323475.145 -8849114.683 -5350262.427 10 0 59344 44100.00000 0 -23810871.156 -8904031.953 -2178694.576 10 0 59344 45000.00000 0 -23933593.454 -8784076.959 1035168.661 10 0 59344 45900.00000 0 -23670226.759 -8540431.691 4228939.084 10 0 59344 46800.00000 0 -23012176.915 -8228120.866 7340635.692 10 0 59344 47700.00000 0 -21964133.895 -7903462.300 10309886.136 10 0 59344 48600.00000 0 -20543995.941 -7621472.875 13079095.474 10 0 59344 49500.00000 0 -18782257.893 -7433339.978 15594559.620 10 0 59344 50400.00000 0 -16720889.185 -7384065.255 17807502.138 10 0 59344 51300.00000 0 -14411748.082 -7510380.110 19675014.785 10 0 59344 52200.00000 0 -11914597.824 -7839020.837 21160884.192 10 0 59344 53100.00000 0 -9294806.780 -8385436.055 22236289.301 10 0 59344 54000.00000 0 -6620827.463 -9152981.072 22880356.771 10 0 59344 54900.00000 0 -3961558.212 -10132633.501 23080564.127 10 0 59344 55800.00000 0 -1383696.131 -11303242.743 22832983.211 10 0 59344 56700.00000 0 1050809.946 -12632303.855 22142359.347 10 0 59344 57600.00000 0 3287101.839 -14077224.541 21022024.457 10 0 59344 58500.00000 0 5279453.403 -15587033.365 19493645.378 10 0 59344 59400.00000 0 6992926.965 -17104458.878 17586811.515 10 0 59344 60300.00000 0 8404576.663 -18568293.648 15338468.955 10 0 59344 61200.00000 0 9504149.118 -19915944.871 12792211.094 10 0 59344 62100.00000 0 10294252.730 -21086065.094 9997438.714 10 0 59344 63000.00000 0 10789989.084 -22021152.759 7008405.040 10 0 59344 63900.00000 0 11018062.359 -22670013.001 3883163.991 10 0 59344 64800.00000 0 11015404.824 -22989974.673 682441.845 10 0 59344 65700.00000 0 10827376.931 -22948769.437 -2531545.589 10 0 59344 66600.00000 0 10505618.689 -22525992.799 -5696306.789 10 0 59344 67500.00000 0 10105643.933 -21714084.485 -8750295.134 10 0 59344 68400.00000 0 9684280.097 -20518785.809 -11634111.817 10 0 59344 69300.00000 0 9297062.765 -18959053.843 -14291666.842 10 0 59344 70200.00000 0 8995696.111 -17066435.188 -16671274.876 10 0 59344 71100.00000 0 8825687.539 -14883924.966 -18726664.164 10 0 59344 72000.00000 0 8824257.255 -12464358.446 -20417878.521 10 0 59344 72900.00000 0 9018611.742 -9868402.281 -21712054.843 10 0 59344 73800.00000 0 9424654.522 -7162228.980 -22584061.160 10 0 59344 74700.00000 0 10046188.968 -4414971.546 -23016983.078 10 0 59344 75600.00000 0 10874647.095 -1696063.996 -23002449.583 10 0 59344 76500.00000 0 11889355.996 927421.882 -22540792.229 10 0 59344 77400.00000 0 13058330.953 3393333.173 -21641034.988 10 0 59344 78300.00000 0 14339562.063 5646780.260 -20320715.240 10 0 59344 79200.00000 0 15682740.509 7642172.375 -18605539.500 10 0 59344 80100.00000 0 17031352.066 9344860.539 -16528880.686 10 0 59344 81000.00000 0 18325049.986 10732320.697 -14131126.707 10 0 59344 81900.00000 0 19502207.596 11794829.118 -11458892.970 10 0 59344 82800.00000 0 20502543.287 12535603.275 -8564114.183 10 0 59344 83700.00000 0 21269707.453 12970403.954 -5503033.181 10 0 59344 84600.00000 0 21753722.497 13126616.865 -2335106.484 10 0 59344 85500.00000 0 21913173.085 13041853.857 878151.786 10 0 59345 0.00000 0 21717054.486 12762133.983 4074364.929 10 0 59345 900.00000 0 21146200.643 12339722.335 7191504.574 10 0 59345 1800.00000 0 20194233.025 11830718.381 10169092.708 10 0 59345 2700.00000 0 18867988.166 11292496.831 12949372.727 10 0 59345 3600.00000 0 17187407.786 10781108.690 15478426.021 10 0 59345 4500.00000 0 15184894.334 10348752.779 17707212.929 10 0 59345 5400.00000 0 12904159.044 10041424.069 19592518.386 10 0 59345 6300.00000 0 10398609.738 9896837.800 21097784.532 10 0 59345 7200.00000 0 7729344.892 9942716.586 22193814.776 10 0 59345 8100.00000 0 4962836.476 10195512.457 22859336.385 10 0 59345 9000.00000 0 2168396.745 10659617.574 23081411.299 10 0 59345 9900.00000 0 -584466.877 11327097.053 22855687.517 10 0 59345 10800.00000 0 -3228700.320 12177955.606 22186486.396 10 0 59345 11700.00000 0 -5702246.081 13180927.588 21086723.922 10 0 59345 12600.00000 0 -7950376.552 14294758.199 19577667.067 10 0 59345 13500.00000 0 -9927721.554 15469923.096 17688529.229 10 0 59345 14400.00000 0 -11599906.537 16650715.244 15455911.708 10 0 59345 15300.00000 0 -12944733.813 17777612.137 12923101.148 10 0 59345 16200.00000 0 -13952858.048 18789824.531 10139235.703 10 0 59345 17100.00000 0 -14627928.267 19627919.713 7158355.350 10 0 59345 18000.00000 0 -14986190.737 20236408.761 4038354.404 10 0 59345 18900.00000 0 -15055569.941 20566188.339 839856.401 10 0 59345 19800.00000 0 -14874266.816 20576733.308 -2374966.669 10 0 59345 20700.00000 0 -14488933.928 20237946.693 -5543607.301 10 0 59345 21600.00000 0 -13952505.385 19531587.812 -8604443.404 10 0 59345 22500.00000 0 -13321773.941 18452217.165 -11497942.718 10 0 59345 23400.00000 0 -12654818.551 17007617.087 -14167826.470 10 0 59345 24300.00000 0 -12008392.003 15218669.406 -16562168.977 10 0 59345 25200.00000 0 -11435379.791 13118694.267 -18634411.319 10 0 59345 26100.00000 0 -10982438.272 10752277.123 -20344269.011 10 0 59345 27000.00000 0 -10687912.349 8173632.395 -21658515.968 10 0 59345 27900.00000 0 -10580120.882 5444571.637 -22551629.693 10 0 59345 28800.00000 0 -10676082.300 2632160.695 -23006285.344 10 0 59345 29700.00000 0 -10980734.191 -193836.941 -23013689.522 10 0 59345 30600.00000 0 -11486679.667 -2963624.617 -22573747.662 10 0 59345 31500.00000 0 -12174471.078 -5610034.359 -21695062.133 10 0 59345 32400.00000 0 -13013419.025 -8071076.098 -20394761.366 10 0 59345 33300.00000 0 -13962892.490 -10292268.973 -18698163.498 10 0 59345 34200.00000 0 -14974055.270 -12228658.558 -16638281.149 10 0 59345 35100.00000 0 -15991965.493 -13846437.115 -14255176.985 10 0 59345 36000.00000 0 -16957949.770 -15124100.512 -11595182.527 10 0 59345 36900.00000 0 -17812151.797 -16053094.805 -8709995.464 10 0 59345 37800.00000 0 -18496147.949 -16637926.891 -5655673.058 10 0 59345 38700.00000 0 -18955519.435 -16895736.126 -2491541.289 10 0 59345 39600.00000 0 -19142272.426 -16855346.287 720958.740 10 0 59345 40500.00000 0 -19017003.947 -16555839.176 3919464.531 10 0 59345 41400.00000 0 -18550722.032 -16044711.122 7041902.617 10 0 59345 42300.00000 0 -17726243.270 -15375691.023 10027691.899 10 0 59345 43200.00000 0 -16539108.620 -14606312.683 12818916.516 10 0 59345 44100.00000 0 -14997978.628 -13795344.217 15361445.577 10 0 59345 45000.00000 0 -13124490.999 -13000183.047 17605978.252 10 0 59345 45900.00000 0 -10952585.856 -12274326.174 19508994.461 10 0 59345 46800.00000 0 -8527326.080 -11665021.929 21033593.341 10 0 59345 47700.00000 0 -5903261.059 -11211201.659 22150203.900 10 0 59345 48600.00000 0 -3142400.888 -10941777.853 22837154.787 10 0 59345 49500.00000 0 -311883.993 -10874379.908 23081092.738 10 0 59345 50400.00000 0 2518566.132 -11014580.443 22877241.949 10 0 59345 51300.00000 0 5279290.885 -11355644.671 22229499.507 10 0 59345 52200.00000 0 7903344.547 -11878813.665 21150364.855 10 0 59345 53100.00000 0 10329031.487 -12554110.088 19660704.204 10 0 59345 54000.00000 0 12502228.270 -13341633.261 17789353.765 10 0 59345 54900.00000 0 14378394.941 -14193289.851 15572568.580 10 0 59345 55800.00000 0 15924192.325 -15054888.131 13053326.763 10 0 59345 56700.00000 0 17118638.362 -15868508.185 10280501.741 10 0 59345 57600.00000 0 17953755.511 -16575048.554 7307917.814 10 0 59345 58500.00000 0 18434682.367 -17116841.910 4193306.987 10 0 59345 59400.00000 0 18579245.092 -17440229.076 997187.104 10 0 59345 60300.00000 0 18417007.080 -17497982.038 -2218316.757 10 0 59345 61200.00000 0 17987837.262 -17251472.691 -5390684.252 10 0 59345 62100.00000 0 17340058.027 -16672494.574 -8458220.915 10 0 59345 63000.00000 0 16528251.570 -15744659.414 -11361264.006 10 0 59345 63900.00000 0 15610818.038 -14464308.262 -14043348.754 10 0 59345 64800.00000 0 14647389.350 -12840897.581 -16452311.659 10 0 59345 65700.00000 0 13696208.594 -10896842.806 -18541308.892 10 0 59345 66600.00000 0 12811586.222 -8666824.988 -20269729.590 10 0 59345 67500.00000 0 12041540.769 -6196588.653 -21603986.263 10 0 59345 68400.00000 0 11425723.799 -3541280.403 -22518167.050 10 0 59345 69300.00000 0 10993716.533 -763397.100 -22994537.399 10 0 59345 70200.00000 0 10763769.733 2069571.392 -23023881.829 10 0 59345 71100.00000 0 10742039.539 4887707.281 -22605679.523 10 0 59345 72000.00000 0 10922351.025 7621331.416 -21748110.689 10 0 59345 72900.00000 0 11286498.924 10203661.071 -20467893.870 10 0 59345 73800.00000 0 11805072.394 12573349.050 -18789957.507 10 0 59345 74700.00000 0 12438768.614 14676799.143 -16746952.260 10 0 59345 75600.00000 0 13140139.475 16470162.425 -14378613.549 10 0 59345 76500.00000 0 13855697.353 17920932.166 -11730986.691 10 0 59345 77400.00000 0 14528290.872 19009071.875 -8855529.739 10 0 59345 78300.00000 0 15099650.076 19727630.542 -5808111.499 10 0 59345 79200.00000 0 15512993.335 20082820.624 -2647924.332 10 0 59345 80100.00000 0 15715585.634 20093556.831 563666.893 10 0 59345 81000.00000 0 15661140.048 19790476.401 3764317.048 10 0 59345 81900.00000 0 15311960.715 19214483.258 6891910.861 10 0 59345 82800.00000 0 14640736.681 18414878.326 9885767.110 10 0 59345 83700.00000 0 13631910.658 17447155.536 12687813.443 10 0 59345 84600.00000 0 12282564.633 16370556.812 15243709.205 10 0 59345 85500.00000 0 10602784.633 15245489.245 17503894.605 10 0 59346 0.00000 0 8615488.672 14130913.019 19424546.405 10 0 59346 900.00000 0 6355723.795 13081809.850 20968422.380 10 0 59346 1800.00000 0 3869461.710 12146837.112 22105578.348 10 0 59346 2700.00000 0 1211940.376 11366266.953 22813945.199 10 0 59346 3600.00000 0 -1554379.331 10770294.620 23079754.951 10 0 59346 4500.00000 0 -4362159.064 10377787.669 22897808.032 10 0 59346 5400.00000 0 -7141734.325 10195527.554 22271576.835 10 0 59346 6300.00000 0 -9823767.242 10217975.389 21213143.325 10 0 59346 7200.00000 0 -12341891.816 10427571.740 19742971.507 10 0 59346 8100.00000 0 -14635242.885 10795558.108 17889518.466 10 0 59346 9000.00000 0 -16650764.566 11283285.957 15688690.606 10 0 59346 9900.00000 0 -18345202.574 11843958.684 13183154.765 10 0 59346 10800.00000 0 -19686697.831 12424733.558 10421516.636 10 0 59346 11700.00000 0 -20655915.009 12969095.285 7457381.692 10 0 59346 12600.00000 0 -21246658.845 13419401.038 4348316.411 10 0 59346 13500.00000 0 -21465952.517 13719489.197 1154729.766 10 0 59346 14400.00000 0 -21333574.907 13817240.964 -2061303.182 10 0 59346 15300.00000 0 -20881076.418 13666985.703 -5237252.228 10 0 59346 16200.00000 0 -20150315.167 13231647.189 -8311353.357 10 0 59346 17100.00000 0 -19191575.753 12484538.806 -11223815.986 10 0 59346 18000.00000 0 -18061350.514 11410730.509 -13917991.748 10 0 59346 18900.00000 0 -16819877.522 10007928.553 -16341481.446 10 0 59346 19800.00000 0 -15528539.769 8286829.551 -18447158.120 10 0 59346 20700.00000 0 -14247235.730 6270932.829 -20194085.930 10 0 59346 21600.00000 0 -13031832.463 3995817.830 -21548316.961 10 0 59346 22500.00000 0 -11931808.637 1507915.850 -22483550.550 10 0 59346 23400.00000 0 -10988186.643 -1137173.285 -22981642.572 10 0 59346 24300.00000 0 -10231840.421 -3876750.071 -23032955.188 10 0 59346 25200.00000 0 -9682249.659 -6643384.116 -22636540.653 10 0 59346 26100.00000 0 -9346752.069 -9367484.727 -21800155.954 10 0 59346 27000.00000 0 -9220324.377 -11979966.874 -20540108.328 10 0 59346 27900.00000 0 -9285900.414 -14414902.217 -18880934.790 10 0 59346 28800.00000 0 -9515212.090 -16612045.380 -16854922.024 10 0 59346 29700.00000 0 -9870117.036 -18519130.951 -14501475.989 10 0 59346 30600.00000 0 -10304356.250 -20093846.280 -11866353.440 10 0 59346 31500.00000 0 -10765666.965 -21305398.496 -9000770.358 10 0 59346 32400.00000 0 -11198161.003 -22135611.277 -5960404.658 10 0 59346 33300.00000 0 -11544867.666 -22579506.519 -2804312.659 10 0 59346 34200.00000 0 -11750333.323 -22645347.577 406219.354 10 0 59346 35100.00000 0 -11763167.411 -22354143.459 3608865.939 10 0 59346 36000.00000 0 -11538427.038 -21738635.868 6741472.300 10 0 59346 36900.00000 0 -11039739.072 -20841812.635 9743259.312 10 0 59346 37800.00000 0 -10241069.863 -19715010.856 12556000.320 10 0 59346 38700.00000 0 -9128067.554 -18415690.053 15125147.002 10 0 59346 39600.00000 0 -7698920.019 -17004969.278 17400882.584 10 0 59346 40500.00000 0 -5964691.689 -15545031.647 19339082.533 10 0 59346 41400.00000 0 -3949124.266 -14096504.955 20902164.697 10 0 59346 42300.00000 0 -1687908.690 -12715927.823 22059813.038 10 0 59346 43200.00000 0 772542.530 -11453406.857 22789561.692 10 0 59346 44100.00000 0 3376772.816 -10350562.198 23077228.614 10 0 59346 45000.00000 0 6062340.488 -9438846.750 22917190.810 10 0 59346 45900.00000 0 8762175.123 -8738308.717 22312496.001 10 0 59346 46800.00000 0 11407134.918 -8256848.743 21274808.405 10 0 59346 47700.00000 0 13928660.070 -7990002.394 19824189.258 10 0 59346 48600.00000 0 16261413.111 -7921256.961 17988715.660 10 0 59346 49500.00000 0 18345797.297 -8022889.240 15803944.215 10 0 59346 50400.00000 0 20130248.751 -8257289.242 13312228.990 10 0 59346 51300.00000 0 21573207.155 -8578714.216 10561906.105 10 0 59346 52200.00000 0 22644682.843 -8935399.161 7606359.994 10 0 59346 53100.00000 0 23327354.601 -9271934.715 4502989.056 10 0 59346 54000.00000 0 23617152.127 -9531811.665 1312090.526 10 0 59346 54900.00000 0 23523298.523 -9660023.974 -1904313.639 10 0 59346 55800.00000 0 23067811.022 -9605619.418 -5083686.592 10 0 59346 56700.00000 0 22284481.033 -9324088.887 -8164197.997 10 0 59346 57600.00000 0 21217376.697 -8779492.065 -11085932.551 10 0 59346 58500.00000 0 19918931.422 -7946228.302 -13792061.234 10 0 59346 59400.00000 0 18447699.386 -6810376.518 -16229951.842 10 0 59346 60300.00000 0 16865873.053 -5370546.200 -18352196.682 10 0 59346 61200.00000 0 15236667.689 -3638202.438 -20117537.037 10 0 59346 62100.00000 0 13621683.240 -1637450.048 -21491666.333 10 0 59346 63000.00000 0 12078354.626 595715.216 -22447896.527 10 0 59346 63900.00000 0 10657597.520 3014657.946 -22967674.977 10 0 59346 64800.00000 0 9401748.091 5563805.396 -23040942.154 10 0 59346 65700.00000 0 8342882.607 8180730.534 -22666323.644 10 0 59346 66600.00000 0 7501586.617 10798529.523 -21851153.068 10 0 59346 67500.00000 0 6886224.386 13348395.197 -20611325.792 10 0 59346 68400.00000 0 6492738.155 15762279.871 -18970986.426 10 0 59346 69300.00000 0 6304984.538 17975537.029 -16962056.307 10 0 59346 70200.00000 0 6295592.754 19929432.293 -14623610.161 10 0 59346 71100.00000 0 6427307.465 21573419.614 -12001114.023 10 0 59346 72000.00000 0 6654758.666 22867088.165 -9145539.287 10 0 59346 72900.00000 0 6926583.062 23781699.301 -6112370.153 10 0 59346 73800.00000 0 7187806.548 24301249.997 -2960523.807 10 0 59346 74700.00000 0 7382386.464 24423019.026 248795.346 10 0 59346 75600.00000 0 7455805.708 24157573.984 3453284.921 10 0 59346 76500.00000 0 7357608.475 23528239.673 6590753.955 10 0 59346 77400.00000 0 7043770.168 22570051.020 9600328.679 10 0 59346 78300.00000 0 6478800.953 21328235.230 12423631.206 10 0 59346 79200.00000 0 5637493.846 19856287.463 15005908.363 10 0 59346 80100.00000 0 4506243.217 18213721.117 17297088.925 10 0 59346 81000.00000 0 3083877.672 16463587.143 19252749.257 10 0 59346 81900.00000 0 1381971.528 14669866.116 20834969.230 10 0 59346 82800.00000 0 -575379.046 12894841.821 22013062.470 10 0 59346 83700.00000 0 -2752307.082 11196565.536 22764167.503 10 0 59346 84600.00000 0 -5102423.048 9626516.151 23073688.975 10 0 59346 85500.00000 0 -7570509.666 8227553.063 22935580.752 99